Eveleth, MN

7:12 AM CST on February 10, 2016 (GMT -0600)
Eveleth-Virginia Municipal

Weather History for KEVM - July, 2014

Change the Weather History Date:

Friday, July 4, 2014

  Actual Average Record
Temperature  
Mean Temperature 59 °F -  
Max Temperature 77 °F 73 °F 90 °F (1988)
Min Temperature 41 °F 51 °F 41 °F (2008)
Degree Days  
Heating Degree Days 6    
Growing Degree Days 9 (Base 50)    
Moisture  
Dew Point 50 °F    
Average Humidity 72    
Maximum Humidity 100    
Minimum Humidity 38    
Precipitation  
Precipitation 0.00 in - - ()
Sea Level Pressure  
Sea Level Pressure 30.19 in    
Wind  
Wind Speed 3 mph (SSW)    
Max Wind Speed 16 mph    
Max Gust Speed 23 mph    
Visibility 9 miles    
Events Fog    
Averages and records for this station are not official NWS values.
T = Trace of Precipitation, MM = Missing Value Source: NWS Daily Summary

Daily Weather History Graph

Daily Weather History Graph

Search for Another Location

Airport or City:

Trip Planner

Search our weather history database for the weather conditions in past years. The results will help you decide how hot, cold, wet, or windy it might be!

Date:

Astronomy

Jul. 04, 2014 Rise Set
Actual Time 5:19 AM CDT 9:09 PM CDT
Civil Twilight 4:39 AM CDT 9:49 PM CDT
Nautical Twilight 3:44 AM CDT 10:43 PM CDT
Astronomical Twilight 2:23 AM CDT 12:03 AM CDT
Moon 12:46 PM CDT (7/4) 12:03 AM CDT (7/4)
Length of Visible Light 17h 10m
Length of Day
15h 50m
Waxing Crescent, 42% of the Moon is Illuminated
Jul 4
Waxing Crescent
Jul 5
First Quarter
Jul 12
Full
Jul 18
Last Quarter
Jul 26
New

Hourly Weather History & Observations

Time (CDT) Temp. Dew Point Humidity Pressure Visibility Wind Dir Wind Speed Gust Speed Precip Events Conditions
12:12 AM 50.0 °F 48.2 °F 94% 30.22 in 10.0 mi Calm Calm - N/A   Clear
12:33 AM 48.2 °F 46.4 °F 93% 30.22 in 5.0 mi Calm Calm - N/A   Clear
12:53 AM 46.4 °F 46.4 °F 100% 30.22 in 10.0 mi Calm Calm - N/A   Clear
1:13 AM 46.4 °F 44.6 °F 93% 30.23 in 10.0 mi Calm Calm - N/A   Clear
1:32 AM 44.6 °F 44.6 °F 100% 30.22 in 3.0 mi Calm Calm - N/A   Clear
1:53 AM 44.6 °F 42.8 °F 93% 30.23 in 7.0 mi Calm Calm - N/A   Clear
2:13 AM 44.6 °F 42.8 °F 93% 30.23 in 5.0 mi Calm Calm - N/A   Clear
2:32 AM 44.6 °F 42.8 °F 93% 30.23 in 5.0 mi Calm Calm - N/A   Clear
2:53 AM 44.6 °F 42.8 °F 93% 30.24 in 5.0 mi Calm Calm - N/A   Clear
3:13 AM 44.6 °F 42.8 °F 93% 30.24 in 5.0 mi Calm Calm - N/A   Clear
3:32 AM 42.8 °F 42.8 °F 100% 30.24 in 7.0 mi Calm Calm - N/A   Clear
3:53 AM 42.8 °F 41.0 °F 93% 30.24 in 5.0 mi Calm Calm - N/A   Clear
4:13 AM 42.8 °F 41.0 °F 93% 30.25 in 5.0 mi Calm Calm - N/A   Clear
4:32 AM 42.8 °F 41.0 °F 93% 30.25 in 10.0 mi Calm Calm - N/A   Clear
4:53 AM 42.8 °F 41.0 °F 93% 30.25 in 10.0 mi Calm Calm - N/A   Clear
5:13 AM 42.8 °F 41.0 °F 93% 30.25 in 0.5 mi Calm Calm - N/A Fog Fog
5:33 AM 41.0 °F 41.0 °F 100% 30.25 in 0.2 mi Calm Calm - N/A Fog Fog
5:52 AM 42.8 °F 41.0 °F 93% 30.25 in 0.2 mi Calm Calm - N/A Fog Fog
6:13 AM 42.8 °F 41.0 °F 93% 30.25 in 0.8 mi Calm Calm - N/A   Mist
6:33 AM 44.6 °F 44.6 °F 100% 30.26 in 0.8 mi Calm Calm - N/A   Mist
6:53 AM 51.8 °F 51.8 °F 100% 30.26 in 10.0 mi Calm Calm - N/A   Clear
7:13 AM 51.8 °F 51.8 °F 100% 30.27 in 10.0 mi Calm Calm - N/A   Clear
7:32 AM 51.8 °F 51.8 °F 100% 30.27 in 10.0 mi Calm Calm - N/A   Clear
7:53 AM 53.6 °F 51.8 °F 94% 30.27 in 10.0 mi Calm Calm - N/A   Clear
8:13 AM 57.2 °F 51.8 °F 82% 30.27 in 10.0 mi Calm Calm - N/A   Clear
8:32 AM 59.0 °F 51.8 °F 77% 30.26 in 10.0 mi Calm Calm - N/A   Clear
8:53 AM 62.6 °F 51.8 °F 68% 30.26 in 10.0 mi Calm Calm - N/A   Clear
9:13 AM 64.4 °F 51.8 °F 64% 30.26 in 10.0 mi Calm Calm - N/A   Clear
9:32 AM 68.0 °F 51.8 °F 56% 30.25 in 10.0 mi SW 5.8 mph - N/A   Clear
9:53 AM 71.6 °F 51.8 °F 50% 30.24 in 10.0 mi SSW 3.5 mph - N/A   Clear
10:12 AM 71.6 °F 50.0 °F 46% 30.24 in 10.0 mi South 8.1 mph - N/A   Clear
10:33 AM 71.6 °F 48.2 °F 43% 30.23 in 10.0 mi South 11.5 mph 16.1 mph N/A   Clear
10:53 AM 71.6 °F 46.4 °F 41% 30.23 in 10.0 mi SSW 9.2 mph - N/A   Clear
11:13 AM 71.6 °F 46.4 °F 41% 30.23 in 10.0 mi South 11.5 mph - N/A   Scattered Clouds
11:33 AM 71.6 °F 44.6 °F 38% 30.23 in 10.0 mi SW 11.5 mph 20.7 mph N/A   Clear
11:52 AM 71.6 °F 46.4 °F 41% 30.22 in 10.0 mi South 10.4 mph 17.3 mph N/A   Clear
12:13 PM 71.6 °F 44.6 °F 38% 30.22 in 10.0 mi SW 11.5 mph 18.4 mph N/A   Scattered Clouds
12:33 PM 73.4 °F 46.4 °F 38% 30.21 in 10.0 mi South 13.8 mph 21.9 mph N/A   Scattered Clouds
12:52 PM 73.4 °F 46.4 °F 38% 30.20 in 10.0 mi South 9.2 mph 19.6 mph N/A   Clear
1:01 PM 73.4 °F 48.2 °F 41% 30.20 in 10.0 mi SSW 13.8 mph 20.7 mph N/A   Clear
1:35 PM 75.2 °F 48.2 °F 38% 30.18 in 10.0 mi SW 15.0 mph 20.7 mph N/A   Clear
1:45 PM 77.0 °F 50.0 °F 39% 30.18 in 10.0 mi SSW 9.2 mph 23.0 mph N/A   Clear
2:14 PM 77.0 °F 50.0 °F 39% 30.18 in 10.0 mi SSW 12.7 mph 20.7 mph N/A   Clear
2:29 PM 77.0 °F 50.0 °F 39% 30.18 in 10.0 mi South 11.5 mph 23.0 mph N/A   Clear
2:45 PM 77.0 °F 50.0 °F 39% 30.17 in 10.0 mi South 12.7 mph 18.4 mph N/A   Scattered Clouds
3:05 PM 75.2 °F 50.0 °F 41% 30.17 in 10.0 mi SW 15.0 mph 23.0 mph N/A   Mostly Cloudy
3:25 PM 77.0 °F 51.8 °F 41% 30.16 in 10.0 mi SW 13.8 mph 23.0 mph N/A   Scattered Clouds
3:46 PM 75.2 °F 51.8 °F 44% 30.16 in 10.0 mi SSW 16.1 mph 19.6 mph N/A   Clear
4:12 PM 73.4 °F 51.8 °F 47% 30.15 in 10.0 mi SSW 12.7 mph 21.9 mph N/A   Mostly Cloudy
4:25 PM 73.4 °F 51.8 °F 47% 30.15 in 10.0 mi SSW 11.5 mph 20.7 mph N/A   Overcast
4:53 PM 73.4 °F 51.8 °F 47% 30.15 in 10.0 mi SSW 11.5 mph - N/A   Overcast
5:09 PM 73.4 °F 51.8 °F 47% 30.16 in 10.0 mi SW 12.7 mph 21.9 mph N/A   Overcast
5:33 PM 64.4 °F 55.4 °F 73% 30.16 in 10.0 mi SW 8.1 mph 17.3 mph N/A   Overcast
5:45 PM 62.6 °F 57.2 °F 82% 30.16 in 10.0 mi Calm Calm - N/A   Overcast
6:05 PM 62.6 °F 57.2 °F 82% 30.15 in 10.0 mi SSE 3.5 mph - N/A   Mostly Cloudy
6:30 PM 64.4 °F 57.2 °F 77% 30.14 in 10.0 mi South 6.9 mph - N/A   Scattered Clouds
6:55 PM 64.4 °F 55.4 °F 73% 30.13 in 10.0 mi SSW 9.2 mph - N/A   Clear
7:14 PM 64.4 °F 55.4 °F 73% 30.12 in 10.0 mi South 6.9 mph - N/A   Clear
7:25 PM 64.4 °F 55.4 °F 73% 30.12 in 10.0 mi SSE 5.8 mph - N/A   Clear
7:52 PM 64.4 °F 55.4 °F 73% 30.12 in 10.0 mi SSE 6.9 mph - N/A   Mostly Cloudy
8:07 PM 62.6 °F 55.4 °F 77% 30.11 in 10.0 mi SE 3.5 mph - N/A   Overcast
8:25 PM 62.6 °F 55.4 °F 77% 30.10 in 10.0 mi SE 3.5 mph - N/A   Overcast
8:46 PM 62.6 °F 55.4 °F 77% 30.10 in 10.0 mi Calm Calm - N/A   Overcast
9:05 PM 62.6 °F 55.4 °F 77% 30.10 in 10.0 mi SE 3.5 mph - N/A   Overcast
9:22 PM 62.6 °F 55.4 °F 77% 30.09 in 10.0 mi SE 4.6 mph - N/A   Mostly Cloudy
9:30 PM 60.8 °F 55.4 °F 82% 30.09 in 10.0 mi SE 3.5 mph - N/A   Mostly Cloudy
9:48 PM 60.8 °F 53.6 °F 77% 30.09 in 10.0 mi Calm Calm - N/A   Scattered Clouds
10:05 PM 60.8 °F 53.6 °F 77% 30.09 in 10.0 mi Calm Calm - N/A   Scattered Clouds
10:25 PM 60.8 °F 55.4 °F 82% 30.08 in 10.0 mi Calm Calm - N/A   Scattered Clouds
10:46 PM 59.0 °F 55.4 °F 88% 30.08 in 10.0 mi Calm Calm - N/A   Mostly Cloudy
11:11 PM 60.8 °F 55.4 °F 82% 30.07 in 10.0 mi Calm Calm - N/A   Mostly Cloudy
11:30 PM 60.8 °F 55.4 °F 82% 30.06 in 10.0 mi Calm Calm - N/A   Mostly Cloudy
11:45 PM 60.8 °F 55.4 °F 82% 30.07 in 10.0 mi Calm Calm - N/A   Mostly Cloudy